295P/LINEAR (2014)

Japanese version
Home page
Updated on June 11, 2016

---------------------------------------------------------------------

* Profile

Designation 295P/2013 Y1
Recovery Date December 25, 2013
Magnitude 20.6 mag
Recoverer J. V. Scotti (Spacewatch)

* Pictures

* Orbital Elements

Epoch 2014 May 23.0 TT = JDT 2456800.5
T 2014 May 14.71577 TT                                  MPCW
q   2.0485992            (2000.0)            P               Q
n   0.07985016     Peri.   73.40494     +0.16375156     -0.98533090
a   5.3409542      Node     7.66816     +0.71065726     +0.08404378
e   0.6164357      Incl.   21.10454     +0.68421612     +0.14852493
P  12.3
From 71 observations 2002 Jan. 6-2015 Feb. 18, mean residual 0".5.

* Magnitudes Graph

        m1 = 14.0 + 5 log d + 10.0 log r

---------------------------------------------------------------------

The orbital elements are published on M.P.E.C. 2015-G03.
The magnitudes graphs are made with Comet for Windows.

---------------------------------------------------------------------

Copyright(C) Seiichi Yoshida (comet@aerith.net). All rights reserved.